| time (UTC) | temp F | wind direction | speed MPH | gust MPH | rain 1hr in | rain 24hr in | rain mn in | humidity % | barometer mb |
| 20260906113517 | 62 | 342 | 1.0 | 4.0 | 0.00 | 0.00 | 0.00 | 95 | 1020.5 |
| 20260906113028 | 62 | 355 | 2.0 | 4.0 | 0.00 | 0.00 | 0.00 | 95 | 1020.4 |
| 20260906112524 | 62 | 25 | 2.0 | 4.0 | 0.00 | 0.00 | 0.00 | 94 | 1020.2 |
| 20260906112019 | 62 | 25 | 0.0 | 0.0 | 0.00 | 0.00 | 0.00 | 94 | 1020.0 |
| 20260906111536 | 62 | 25 | 0.0 | 0.0 | 0.00 | 0.00 | 0.00 | 94 | 1019.8 |
| 20260906111050 | 63 | 25 | 0.0 | 2.0 | 0.00 | 0.00 | 0.00 | 94 | 1019.8 |
| 20260906110523 | 63 | 25 | 1.0 | 2.0 | 0.00 | 0.00 | 0.00 | 94 | 1019.7 |
| 20260906110046 | 62 | 25 | 0.0 | 4.0 | 0.00 | 0.00 | 0.00 | 94 | 1019.6 |
| 20260906105556 | 62 | 25 | 1.0 | 4.0 | 0.00 | 0.00 | 0.00 | 94 | 1019.6 |
| 20260906105030 | 62 | 25 | 0.0 | 4.0 | 0.00 | 0.00 | 0.00 | 94 | 1019.5 |
| 20260906104533 | 62 | 25 | 2.0 | 3.0 | 0.00 | 0.00 | 0.00 | 94 | 1019.6 |
| 20260906104028 | 62 | 25 | 1.0 | 3.0 | 0.00 | 0.00 | 0.00 | 94 | 1019.6 |
| 20260906103541 | 62 | 25 | 2.0 | 3.0 | 0.00 | 0.00 | 0.00 | 94 | 1019.7 |
| 20260906103018 | 62 | 25 | 0.0 | 1.0 | 0.00 | 0.00 | 0.00 | 94 | 1019.7 |
| 20260906102532 | 63 | 25 | 0.0 | 0.0 | 0.00 | 0.00 | 0.00 | 94 | 1019.7 |
| 20260906102035 | 63 | 25 | 0.0 | 0.0 | 0.00 | 0.00 | 0.00 | 94 | 1019.6 |
| 20260906101546 | 63 | 25 | 0.0 | 3.0 | 0.00 | 0.00 | 0.00 | 94 | 1019.5 |
| 20260906101022 | 63 | 25 | 0.0 | 3.0 | 0.00 | 0.00 | 0.00 | 94 | 1019.4 |
| 20260906100537 | 63 | 25 | 0.0 | 0.0 | 0.00 | 0.00 | 0.00 | 94 | 1019.3 |
| 20260906100030 | 63 | 25 | 0.0 | 2.0 | 0.00 | 0.01 | 0.00 | 94 | 1019.3 |
| 20260906095536 | 63 | 25 | 0.0 | 4.0 | 0.00 | 0.01 | 0.00 | 94 | 1019.4 |
| 20260906095051 | 63 | 25 | 2.0 | 4.0 | 0.00 | 0.01 | 0.00 | 94 | 1019.4 |
| 20260906094519 | 63 | 25 | 2.0 | 5.0 | 0.00 | 0.01 | 0.00 | 94 | 1019.4 |
| 20260906094032 | 63 | 25 | 2.0 | 5.0 | 0.00 | 0.01 | 0.00 | 94 | 1019.5 |
| 20260906093522 | 63 | 36 | 3.0 | 5.0 | 0.00 | 0.01 | 0.00 | 94 | 1019.6 |
| 20260906093031 | 64 | 110 | 1.0 | 3.0 | 0.00 | 0.01 | 0.00 | 94 | 1019.6 |
| 20260906092536 | 64 | 110 | 1.0 | 4.0 | 0.00 | 0.01 | 0.00 | 94 | 1019.7 |
| 20260906092018 | 64 | 110 | 2.0 | 4.0 | 0.00 | 0.01 | 0.00 | 94 | 1019.7 |
| 20260906091538 | 64 | 110 | 1.0 | 4.0 | 0.00 | 0.01 | 0.00 | 94 | 1019.7 |
| 20260906091048 | 64 | 110 | 2.0 | 4.0 | 0.00 | 0.01 | 0.00 | 94 | 1019.4 |
| 20260906090521 | 64 | 110 | 2.0 | 3.0 | 0.00 | 0.01 | 0.00 | 94 | 1019.4 |
| 20260906090033 | 64 | 110 | 2.0 | 3.0 | 0.00 | 0.01 | 0.00 | 94 | 1019.2 |
| 20260906085529 | 64 | 110 | 1.0 | 3.0 | 0.00 | 0.01 | 0.00 | 93 | 1019.3 |
| 20260906085023 | 64 | 110 | 1.0 | 4.0 | 0.00 | 0.01 | 0.00 | 93 | 1019.3 |
| 20260906084527 | 64 | 110 | 2.0 | 4.0 | 0.00 | 0.01 | 0.00 | 93 | 1019.3 |
| 20260906084020 | 64 | 110 | 2.0 | 4.0 | 0.00 | 0.01 | 0.00 | 93 | 1019.3 |
| 20260906083536 | 64 | 110 | 1.0 | 4.0 | 0.00 | 0.01 | 0.00 | 94 | 1019.4 |
| 20260906083034 | 63 | 110 | 1.0 | 4.0 | 0.00 | 0.01 | 0.00 | 93 | 1019.4 |
| 20260906082532 | 63 | 110 | 2.0 | 4.0 | 0.00 | 0.01 | 0.00 | 93 | 1019.2 |
| 20260906082025 | 63 | 110 | 2.0 | 4.0 | 0.00 | 0.01 | 0.00 | 93 | 1019.0 |
| 20260906081530 | 63 | 110 | 2.0 | 4.0 | 0.00 | 0.01 | 0.00 | 92 | 1019.2 |
| 20260906081023 | 63 | 110 | 1.0 | 3.0 | 0.00 | 0.01 | 0.00 | 92 | 1019.1 |
| 20260906080520 | 63 | 110 | 1.0 | 3.0 | 0.00 | 0.01 | 0.00 | 92 | 1019.1 |
| 20260906080029 | 63 | 110 | 1.0 | 2.0 | 0.00 | 0.01 | 0.00 | 92 | 1019.0 |
| 20260906075525 | 63 | 110 | 0.0 | 1.0 | 0.00 | 0.01 | 0.00 | 92 | 1019.1 |
| 20260906075018 | 63 | 110 | 0.0 | 2.0 | 0.00 | 0.01 | 0.00 | 92 | 1019.0 |
| 20260906074532 | 64 | 110 | 1.0 | 2.0 | 0.00 | 0.01 | 0.00 | 92 | 1019.1 |
| 20260906074047 | 64 | 110 | 0.0 | 0.0 | 0.00 | 0.01 | 0.00 | 92 | 1019.2 |
| 20260906073542 | 64 | 110 | 0.0 | 0.0 | 0.00 | 0.01 | 0.00 | 92 | 1019.1 |
| 20260906073022 | 64 | 110 | 0.0 | 0.0 | 0.00 | 0.01 | 0.00 | 92 | 1019.1 |
| 20260906072517 | 64 | 110 | 0.0 | 1.0 | 0.00 | 0.01 | 0.00 | 92 | 1019.3 |
| 20260906072038 | 64 | 110 | 0.0 | 1.0 | 0.00 | 0.01 | 0.00 | 92 | 1019.2 |
| 20260906071535 | 64 | 110 | 0.0 | 1.0 | 0.00 | 0.01 | 0.00 | 92 | 1019.2 |
| 20260906071030 | 64 | 110 | 0.0 | 2.0 | 0.00 | 0.01 | 0.00 | 92 | 1019.2 |
| 20260906070527 | 64 | 110 | 0.0 | 3.0 | 0.00 | 0.01 | 0.00 | 92 | 1019.4 |
| 20260906070032 | 64 | 110 | 2.0 | 3.0 | 0.00 | 0.01 | 0.00 | 92 | 1019.4 |
| 20260906065540 | 65 | 110 | 1.0 | 3.0 | 0.00 | 0.01 | 0.00 | 92 | 1019.4 |
| 20260906065035 | 65 | 110 | 2.0 | 3.0 | 0.00 | 0.01 | 0.00 | 92 | 1019.4 |
| 20260906064524 | 65 | 110 | 2.0 | 3.0 | 0.00 | 0.01 | 0.00 | 92 | 1019.4 |
| 20260906064020 | 65 | 110 | 1.0 | 3.0 | 0.00 | 0.01 | 0.00 | 92 | 1019.4 |
| 20260906063537 | 65 | 110 | 2.0 | 3.0 | 0.00 | 0.01 | 0.00 | 92 | 1019.6 |
| 20260906063052 | 65 | 110 | 1.0 | 4.0 | 0.00 | 0.01 | 0.00 | 92 | 1019.4 |
| 20260906062517 | 65 | 110 | 0.0 | 2.0 | 0.00 | 0.01 | 0.00 | 92 | 1019.5 |
| 20260906062033 | 65 | 110 | 0.0 | 0.0 | 0.00 | 0.01 | 0.00 | 92 | 1019.4 |
| 20260906061532 | 65 | 110 | 0.0 | 0.0 | 0.00 | 0.01 | 0.00 | 92 | 1019.5 |
| 20260906061057 | 66 | 110 | 0.0 | 2.0 | 0.00 | 0.01 | 0.00 | 92 | 1019.5 |
| 20260906060523 | 66 | 110 | 0.0 | 2.0 | 0.00 | 0.01 | 0.00 | 92 | 1019.5 |
| 20260906060018 | 66 | 110 | 0.0 | 1.0 | 0.00 | 0.01 | 0.00 | 92 | 1019.5 |
| 20260906055537 | 66 | 110 | 0.0 | 1.0 | 0.00 | 0.01 | 0.00 | 92 | 1019.5 |
| 20260906055030 | 66 | 110 | 0.0 | 1.0 | 0.00 | 0.01 | 0.00 | 92 | 1019.5 |
| 20260906054530 | 66 | 110 | 0.0 | 1.0 | 0.00 | 0.01 | 0.00 | 91 | 1019.5 |
| 20260906054023 | 66 | 110 | 0.0 | 2.0 | 0.00 | 0.01 | 0.00 | 91 | 1019.3 |
| 20260906053534 | 66 | 110 | 0.0 | 2.0 | 0.00 | 0.01 | 0.00 | 92 | 1019.3 |
| 20260906053032 | 67 | 110 | 1.0 | 3.0 | 0.00 | 0.01 | 0.00 | 92 | 1019.4 |
| 20260906052519 | 67 | 110 | 1.0 | 3.0 | 0.00 | 0.01 | 0.00 | 91 | 1019.3 |
| 20260906052034 | 67 | 110 | 0.0 | 3.0 | 0.00 | 0.01 | 0.00 | 91 | 1019.3 |
| 20260906051554 | 67 | 110 | 0.0 | 3.0 | 0.00 | 0.01 | 0.00 | 91 | 1019.4 |
| 20260906051029 | 67 | 110 | 2.0 | 4.0 | 0.00 | 0.01 | 0.00 | 91 | 1019.3 |
| 20260906050521 | 67 | 110 | 2.0 | 4.0 | 0.00 | 0.01 | 0.00 | 91 | 1019.2 |
| 20260906050025 | 67 | 110 | 1.0 | 3.0 | 0.00 | 0.01 | 0.01 | 91 | 1019.2 |
| 20260906045520 | 67 | 110 | 1.0 | 4.0 | 0.00 | 0.01 | 0.01 | 91 | 1019.1 |
| 20260906045035 | 67 | 110 | 2.0 | 4.0 | 0.00 | 0.01 | 0.01 | 91 | 1019.1 |
| 20260906044534 | 67 | 110 | 2.0 | 3.0 | 0.00 | 0.01 | 0.01 | 91 | 1019.1 |
| 20260906044028 | 68 | 110 | 2.0 | 3.0 | 0.00 | 0.01 | 0.01 | 90 | 1019.1 |
| 20260906043518 | 68 | 110 | 1.0 | 3.0 | 0.00 | 0.01 | 0.01 | 91 | 1019.0 |
| 20260906043036 | 68 | 110 | 1.0 | 3.0 | 0.00 | 0.01 | 0.01 | 91 | 1019.1 |
| 20260906042533 | 68 | 110 | 2.0 | 3.0 | 0.00 | 0.01 | 0.01 | 90 | 1019.1 |
| 20260906042018 | 68 | 110 | 2.0 | 3.0 | 0.00 | 0.01 | 0.01 | 90 | 1019.0 |
| 20260906041536 | 68 | 110 | 1.0 | 3.0 | 0.00 | 0.01 | 0.01 | 90 | 1018.9 |
| 20260906041026 | 69 | 110 | 1.0 | 3.0 | 0.00 | 0.01 | 0.01 | 90 | 1019.0 |
| 20260906040521 | 69 | 110 | 0.0 | 3.0 | 0.00 | 0.01 | 0.01 | 90 | 1019.0 |
| 20260906040019 | 69 | 110 | 1.0 | 4.0 | 0.00 | 0.01 | 0.01 | 90 | 1018.8 |
| 20260906035531 | 69 | 110 | 0.0 | 4.0 | 0.00 | 0.01 | 0.01 | 90 | 1018.6 |
| 20260906035044 | 69 | 110 | 1.0 | 7.0 | 0.00 | 0.01 | 0.01 | 90 | 1018.6 |
| 20260906034521 | 69 | 104 | 3.0 | 7.0 | 0.00 | 0.01 | 0.01 | 90 | 1018.6 |
| 20260906034031 | 69 | 113 | 3.0 | 6.0 | 0.00 | 0.01 | 0.01 | 90 | 1018.7 |
| 20260906033540 | 69 | 75 | 3.0 | 6.0 | 0.00 | 0.01 | 0.01 | 89 | 1018.8 |
| 20260906033026 | 70 | 117 | 2.0 | 6.0 | 0.00 | 0.01 | 0.01 | 89 | 1018.8 |
| 20260906032524 | 70 | 48 | 3.0 | 8.0 | 0.00 | 0.01 | 0.01 | 89 | 1018.9 |
| 20260906032036 | 70 | 86 | 3.0 | 9.0 | 0.00 | 0.01 | 0.01 | 89 | 1018.8 |
| 20260906031530 | 70 | 92 | 4.0 | 9.0 | 0.00 | 0.01 | 0.01 | 89 | 1018.8 |
| 20260906031024 | 70 | 65 | 4.0 | 8.0 | 0.00 | 0.01 | 0.01 | 89 | 1018.6 |
| 20260906030520 | 70 | 86 | 2.0 | 6.0 | 0.00 | 0.01 | 0.01 | 89 | 1018.7 |
| 20260906030032 | 70 | 69 | 3.0 | 7.0 | 0.00 | 0.01 | 0.01 | 89 | 1018.6 |
| 20260906025530 | 70 | 107 | 4.0 | 7.0 | 0.00 | 0.01 | 0.01 | 89 | 1018.6 |
| 20260906025039 | 71 | 107 | 3.0 | 6.0 | 0.00 | 0.01 | 0.01 | 89 | 1018.5 |
| 20260906024516 | 71 | 98 | 3.0 | 6.0 | 0.00 | 0.01 | 0.01 | 88 | 1018.4 |
| 20260906024031 | 71 | 116 | 3.0 | 10.0 | 0.00 | 0.01 | 0.01 | 88 | 1018.4 |
| 20260906023542 | 71 | 118 | 4.0 | 10.0 | 0.00 | 0.01 | 0.01 | 88 | 1018.1 |
| 20260906023020 | 71 | 72 | 3.0 | 7.0 | 0.00 | 0.01 | 0.01 | 88 | 1018.1 |
| 20260906022531 | 72 | 96 | 3.0 | 11.0 | 0.00 | 0.01 | 0.01 | 87 | 1018.1 |
| 20260906022037 | 72 | 69 | 3.0 | 11.0 | 0.00 | 0.01 | 0.01 | 87 | 1018.0 |
| 20260906021523 | 72 | 59 | 5.0 | 11.0 | 0.00 | 0.01 | 0.01 | 87 | 1018.0 |
| 20260906021021 | 72 | 123 | 3.0 | 11.0 | 0.00 | 0.01 | 0.01 | 87 | 1017.9 |
| 20260906020535 | 72 | 102 | 4.0 | 12.0 | 0.00 | 0.01 | 0.01 | 87 | 1017.7 |
| 20260906020045 | 72 | 93 | 6.0 | 12.0 | 0.00 | 0.01 | 0.01 | 88 | 1017.7 |
| 20260906015534 | 72 | 91 | 2.0 | 11.0 | 0.00 | 0.01 | 0.01 | 88 | 1017.5 |
| 20260906015038 | 73 | 103 | 5.0 | 11.0 | 0.00 | 0.01 | 0.01 | 88 | 1017.2 |
| 20260906014535 | 73 | 75 | 4.0 | 7.0 | 0.00 | 0.01 | 0.01 | 88 | 1017.2 |
| 20260906014029 | 73 | 76 | 3.0 | 7.0 | 0.00 | 0.01 | 0.01 | 88 | 1017.1 |
| 20260906013523 | 73 | 92 | 3.0 | 7.0 | 0.00 | 0.01 | 0.01 | 88 | 1017.0 |
| 20260906013048 | 73 | 78 | 2.0 | 9.0 | 0.00 | 0.01 | 0.01 | 88 | 1017.0 |
| 20260906012524 | 73 | 44 | 2.0 | 9.0 | 0.00 | 0.01 | 0.01 | 87 | 1017.0 |
| 20260906012039 | 73 | 57 | 4.0 | 6.0 | 0.00 | 0.01 | 0.01 | 87 | 1016.9 |
| 20260906011539 | 73 | 65 | 3.0 | 6.0 | 0.00 | 0.01 | 0.01 | 87 | 1016.9 |
| 20260906011034 | 73 | 75 | 2.0 | 8.0 | 0.00 | 0.01 | 0.01 | 86 | 1017.0 |
| 20260906010525 | 73 | 51 | 3.0 | 6.0 | 0.00 | 0.01 | 0.01 | 86 | 1017.1 |
| 20260906010032 | 73 | 63 | 2.0 | 7.0 | 0.00 | 0.01 | 0.01 | 86 | 1017.2 |
| 20260906005529 | 73 | 63 | 3.0 | 7.0 | 0.00 | 0.01 | 0.01 | 86 | 1017.3 |
| 20260906005023 | 73 | 78 | 4.0 | 7.0 | 0.00 | 0.01 | 0.01 | 86 | 1017.3 |
| 20260906004555 | 73 | 19 | 2.0 | 5.0 | 0.00 | 0.01 | 0.01 | 87 | 1017.3 |
| 20260906004025 | 73 | 74 | 2.0 | 6.0 | 0.00 | 0.01 | 0.01 | 87 | 1017.5 |
| 20260906003521 | 73 | 53 | 3.0 | 5.0 | 0.00 | 0.01 | 0.01 | 87 | 1017.3 |
| 20260906003028 | 73 | 30 | 1.0 | 3.0 | 0.00 | 0.01 | 0.01 | 87 | 1017.2 |
| 20260906002524 | 73 | 30 | 1.0 | 4.0 | 0.00 | 0.01 | 0.01 | 86 | 1017.3 |
| 20260906002039 | 74 | 30 | 1.0 | 5.0 | 0.00 | 0.01 | 0.01 | 85 | 1017.3 |
| 20260906001533 | 74 | 30 | 2.0 | 5.0 | 0.00 | 0.01 | 0.01 | 85 | 1017.3 |
| 20260906001027 | 74 | 59 | 2.0 | 6.0 | 0.00 | 0.01 | 0.01 | 85 | 1017.2 |
| 20260906000520 | 75 | 22 | 3.0 | 7.0 | 0.00 | 0.01 | 0.01 | 84 | 1017.3 |
| 20260906000028 | 75 | 51 | 3.0 | 6.0 | 0.00 | 0.01 | 0.01 | 84 | 1017.2 |
| 20260905235521 | 75 | 24 | 3.0 | 6.0 | 0.00 | 0.01 | 0.01 | 83 | 1017.2 |
| 20260905235031 | 75 | 44 | 4.0 | 7.0 | 0.00 | 0.01 | 0.01 | 82 | 1017.2 |
| 20260905234519 | 75 | 74 | 3.0 | 8.0 | 0.00 | 0.01 | 0.01 | 82 | 1017.3 |
| 20260905234035 | 76 | 46 | 4.0 | 10.0 | 0.00 | 0.01 | 0.01 | 81 | 1017.2 |
| 20260905233519 | 76 | 41 | 4.0 | 7.0 | 0.00 | 0.01 | 0.01 | 79 | 1017.3 |
| 20260905232530 | 77 | 55 | 2.0 | 10.0 | 0.00 | 0.01 | 0.01 | 78 | 1017.4 |
| 20260905232020 | 77 | 44 | 4.0 | 9.0 | 0.00 | 0.01 | 0.01 | 79 | 1017.3 |
| 20260905231538 | 78 | 59 | 4.0 | 8.0 | 0.00 | 0.01 | 0.01 | 78 | 1017.3 |
| 20260905231033 | 78 | 22 | 4.0 | 8.0 | 0.00 | 0.01 | 0.01 | 77 | 1017.3 |
| 20260905230530 | 78 | 35 | 4.0 | 13.0 | 0.00 | 0.01 | 0.01 | 77 | 1017.3 |
| 20260905230030 | 78 | 61 | 4.0 | 13.0 | 0.00 | 0.01 | 0.01 | 77 | 1017.2 |
| 20260905225522 | 78 | 47 | 4.0 | 7.0 | 0.00 | 0.01 | 0.01 | 77 | 1017.2 |
| 20260905225018 | 78 | 67 | 2.0 | 6.0 | 0.00 | 0.01 | 0.01 | 79 | 1017.3 |
| 20260905224556 | 78 | 44 | 4.0 | 6.0 | 0.00 | 0.01 | 0.01 | 79 | 1017.3 |
| 20260905224048 | 77 | 38 | 2.0 | 9.0 | 0.00 | 0.01 | 0.01 | 80 | 1017.4 |
| 20260905223525 | 77 | 38 | 4.0 | 9.0 | 0.00 | 0.01 | 0.01 | 79 | 1017.4 |
| 20260905223038 | 77 | 40 | 4.0 | 12.0 | 0.00 | 0.01 | 0.01 | 78 | 1017.3 |
| 20260905222533 | 78 | 15 | 5.0 | 13.0 | 0.00 | 0.01 | 0.01 | 76 | 1017.3 |
| 20260905222017 | 78 | 87 | 8.0 | 16.0 | 0.00 | 0.01 | 0.01 | 75 | 1017.3 |
| 20260905221528 | 79 | 40 | 8.0 | 16.0 | 0.00 | 0.01 | 0.01 | 75 | 1017.3 |
| 20260905221022 | 79 | 48 | 5.0 | 12.0 | 0.00 | 0.01 | 0.01 | 77 | 1017.1 |
| 20260905220532 | 79 | 88 | 5.0 | 12.0 | 0.00 | 0.01 | 0.01 | 76 | 1016.9 |
| 20260905220031 | 79 | 53 | 7.0 | 10.0 | 0.00 | 0.01 | 0.01 | 77 | 1016.9 |
| 20260905215554 | 79 | 17 | 4.0 | 10.0 | 0.00 | 0.01 | 0.01 | 76 | 1016.8 |
| 20260905215025 | 79 | 40 | 5.0 | 12.0 | 0.00 | 0.01 | 0.01 | 78 | 1016.9 |
| 20260905214541 | 79 | 13 | 5.0 | 12.0 | 0.00 | 0.01 | 0.01 | 77 | 1017.0 |
| 20260905214020 | 79 | 330 | 5.0 | 10.0 | 0.00 | 0.01 | 0.01 | 77 | 1017.1 |
| 20260905213533 | 79 | 34 | 4.0 | 10.0 | 0.00 | 0.01 | 0.01 | 77 | 1017.0 |
| 20260905213050 | 78 | 313 | 4.0 | 8.0 | 0.00 | 0.01 | 0.01 | 77 | 1017.0 |
| 20260905212525 | 78 | 302 | 5.0 | 8.0 | 0.00 | 0.01 | 0.01 | 76 | 1017.1 |
| 20260905212021 | 79 | 10 | 5.0 | 9.0 | 0.00 | 0.01 | 0.01 | 75 | 1017.0 |
| 20260905211520 | 79 | 334 | 5.0 | 9.0 | 0.00 | 0.01 | 0.01 | 77 | 1017.2 |
| 20260905211029 | 79 | 17 | 4.0 | 9.0 | 0.00 | 0.01 | 0.01 | 76 | 1017.1 |
| 20260905210544 | 79 | 327 | 5.0 | 9.0 | 0.00 | 0.01 | 0.01 | 76 | 1017.1 |
| 20260905210029 | 78 | 350 | 5.0 | 9.0 | 0.00 | 0.01 | 0.01 | 76 | 1017.2 |
| 20260905205545 | 78 | 348 | 3.0 | 10.0 | 0.00 | 0.01 | 0.01 | 76 | 1017.2 |
| 20260905205017 | 79 | 5 | 6.0 | 10.0 | 0.00 | 0.01 | 0.01 | 75 | 1017.4 |
| 20260905204537 | 79 | 325 | 5.0 | 9.0 | 0.00 | 0.01 | 0.01 | 74 | 1017.3 |
| 20260905204048 | 79 | 360 | 4.0 | 9.0 | 0.00 | 0.01 | 0.01 | 75 | 1017.2 |
| 20260905203524 | 78 | 326 | 6.0 | 9.0 | 0.00 | 0.01 | 0.01 | 75 | 1017.3 |
| 20260905203050 | 78 | 22 | 4.0 | 8.0 | 0.00 | 0.01 | 0.01 | 75 | 1017.4 |
| 20260905202541 | 78 | 34 | 5.0 | 8.0 | 0.00 | 0.01 | 0.01 | 75 | 1017.3 |
| 20260905202036 | 79 | 355 | 4.0 | 14.0 | 0.00 | 0.01 | 0.01 | 75 | 1017.4 |
| 20260905201534 | 79 | 32 | 4.0 | 14.0 | 0.00 | 0.01 | 0.01 | 75 | 1017.2 |
| 20260905201029 | 79 | 113 | 7.0 | 12.0 | 0.00 | 0.01 | 0.01 | 73 | 1017.2 |
| 20260905200525 | 79 | 21 | 7.0 | 12.0 | 0.00 | 0.01 | 0.01 | 74 | 1017.1 |
| 20260905200016 | 80 | 46 | 3.0 | 13.0 | 0.00 | 0.01 | 0.01 | 75 | 1017.1 |
| 20260905195532 | 80 | 43 | 6.0 | 13.0 | 0.00 | 0.01 | 0.01 | 76 | 1017.2 |
| 20260905195016 | 80 | 40 | 6.0 | 12.0 | 0.00 | 0.01 | 0.01 | 79 | 1017.1 |
| 20260905194527 | 79 | 360 | 4.0 | 14.0 | 0.00 | 0.01 | 0.01 | 78 | 1017.1 |
| 20260905194022 | 80 | 63 | 8.0 | 14.0 | 0.00 | 0.01 | 0.01 | 78 | 1017.2 |
| 20260905193553 | 79 | 52 | 7.0 | 14.0 | 0.00 | 0.01 | 0.01 | 79 | 1017.3 |
| 20260905193029 | 79 | 24 | 7.0 | 14.0 | 0.00 | 0.01 | 0.01 | 79 | 1017.3 |
| 20260905192524 | 78 | 333 | 6.0 | 15.0 | 0.00 | 0.01 | 0.01 | 81 | 1017.2 |
| 20260905192039 | 78 | 10 | 7.0 | 14.0 | 0.00 | 0.01 | 0.01 | 81 | 1017.2 |
| 20260905191535 | 78 | 63 | 9.0 | 14.0 | 0.00 | 0.01 | 0.01 | 81 | 1017.3 |
| 20260905191031 | 78 | 15 | 8.0 | 12.0 | 0.00 | 0.01 | 0.01 | 80 | 1017.3 |
| 20260905190523 | 78 | 355 | 6.0 | 12.0 | 0.00 | 0.01 | 0.01 | 80 | 1017.3 |
| 20260905190037 | 78 | 36 | 5.0 | 13.0 | 0.00 | 0.01 | 0.01 | 80 | 1017.3 |
| 20260905185530 | 79 | 39 | 7.0 | 13.0 | 0.00 | 0.01 | 0.01 | 78 | 1017.3 |
| 20260905185023 | 80 | 338 | 4.0 | 11.0 | 0.00 | 0.01 | 0.01 | 79 | 1017.3 |
| 20260905184520 | 79 | 11 | 4.0 | 10.0 | 0.00 | 0.01 | 0.01 | 80 | 1017.2 |
| 20260905184017 | 79 | 326 | 5.0 | 12.0 | 0.00 | 0.01 | 0.01 | 81 | 1017.3 |
| 20260905183538 | 78 | 44 | 7.0 | 12.0 | 0.00 | 0.01 | 0.01 | 81 | 1017.4 |
| 20260905183035 | 78 | 46 | 3.0 | 9.0 | 0.00 | 0.01 | 0.01 | 80 | 1017.3 |
| 20260905182521 | 78 | 28 | 5.0 | 11.0 | 0.00 | 0.01 | 0.01 | 81 | 1017.5 |
| 20260905182055 | 78 | 40 | 6.0 | 11.0 | 0.00 | 0.01 | 0.01 | 82 | 1017.5 |
| 20260905181538 | 77 | 35 | 4.0 | 9.0 | 0.00 | 0.01 | 0.01 | 85 | 1017.5 |
| 20260905181048 | 76 | 42 | 3.0 | 9.0 | 0.00 | 0.01 | 0.01 | 86 | 1017.5 |
| 20260905180543 | 76 | 36 | 5.0 | 9.0 | 0.00 | 0.01 | 0.01 | 86 | 1017.7 |
| 20260905180021 | 76 | 360 | 3.0 | 12.0 | 0.00 | 0.01 | 0.01 | 86 | 1017.9 |
| 20260905175551 | 75 | 5 | 7.0 | 12.0 | 0.00 | 0.01 | 0.01 | 86 | 1017.9 |
| 20260905175017 | 75 | 15 | 4.0 | 8.0 | 0.00 | 0.01 | 0.01 | 86 | 1017.7 |
| 20260905174547 | 76 | 67 | 1.0 | 6.0 | 0.00 | 0.01 | 0.01 | 86 | 1017.9 |
| 20260905174026 | 75 | 67 | 2.0 | 6.0 | 0.00 | 0.01 | 0.01 | 87 | 1017.9 |
| 20260905173518 | 75 | 66 | 2.0 | 8.0 | 0.00 | 0.01 | 0.01 | 87 | 1017.8 |
| 20260905173020 | 75 | 35 | 2.0 | 9.0 | 0.00 | 0.01 | 0.01 | 87 | 1017.8 |
| 20260905172534 | 75 | 350 | 5.0 | 9.0 | 0.00 | 0.01 | 0.01 | 86 | 1017.8 |
| 20260905172031 | 75 | 28 | 4.0 | 10.0 | 0.00 | 0.01 | 0.01 | 87 | 1017.7 |
| 20260905171539 | 75 | 24 | 6.0 | 10.0 | 0.00 | 0.01 | 0.01 | 87 | 1017.8 |
| 20260905171052 | 75 | 9 | 5.0 | 9.0 | 0.00 | 0.01 | 0.01 | 87 | 1017.8 |
| 20260905170523 | 74 | 23 | 4.0 | 9.0 | 0.00 | 0.01 | 0.01 | 88 | 1017.7 |
| 20260905170024 | 74 | 5 | 4.0 | 11.0 | 0.00 | 0.01 | 0.01 | 89 | 1017.7 |
| 20260905165520 | 74 | 22 | 4.0 | 11.0 | 0.00 | 0.01 | 0.01 | 90 | 1017.7 |
| 20260905165017 | 73 | 46 | 4.0 | 12.0 | 0.00 | 0.01 | 0.01 | 90 | 1017.8 |
| 20260905164521 | 73 | 49 | 6.0 | 12.0 | 0.00 | 0.01 | 0.01 | 91 | 1017.8 |
| 20260905164036 | 73 | 5 | 6.0 | 10.0 | 0.00 | 0.01 | 0.01 | 91 | 1017.8 |
| 20260905163518 | 73 | 46 | 3.0 | 9.0 | 0.00 | 0.01 | 0.01 | 91 | 1017.8 |
| 20260905163028 | 73 | 57 | 5.0 | 10.0 | 0.00 | 0.01 | 0.01 | 91 | 1017.9 |
| 20260905162522 | 73 | 62 | 4.0 | 11.0 | 0.00 | 0.01 | 0.01 | 92 | 1018.0 |
| 20260905162017 | 73 | 50 | 8.0 | 11.0 | 0.00 | 0.01 | 0.01 | 92 | 1018.0 |
| 20260905161520 | 73 | 30 | 5.0 | 11.0 | 0.00 | 0.01 | 0.01 | 93 | 1018.1 |
| 20260905161016 | 73 | 42 | 6.0 | 12.0 | 0.00 | 0.01 | 0.01 | 93 | 1018.0 |
| 20260905160533 | 73 | 49 | 5.0 | 12.0 | 0.00 | 0.01 | 0.01 | 93 | 1017.8 |
| 20260905160029 | 73 | 360 | 4.0 | 10.0 | 0.00 | 0.02 | 0.01 | 94 | 1017.8 |
| 20260905155525 | 73 | 42 | 7.0 | 10.0 | 0.00 | 0.02 | 0.01 | 94 | 1017.8 |
| 20260905155056 | 73 | 41 | 7.0 | 10.0 | 0.00 | 0.02 | 0.01 | 94 | 1017.7 |
| 20260905154530 | 73 | 69 | 3.0 | 7.0 | 0.00 | 0.02 | 0.01 | 95 | 1017.7 |
| 20260905154022 | 73 | 27 | 2.0 | 8.0 | 0.00 | 0.02 | 0.01 | 95 | 1017.6 |
| 20260905153539 | 72 | 34 | 4.0 | 9.0 | 0.00 | 0.02 | 0.01 | 95 | 1017.6 |
| 20260905153038 | 72 | 37 | 3.0 | 9.0 | 0.00 | 0.02 | 0.01 | 95 | 1017.6 |
| 20260905152519 | 72 | 50 | 2.0 | 9.0 | 0.00 | 0.02 | 0.01 | 95 | 1017.6 |
| 20260905152035 | 72 | 52 | 4.0 | 9.0 | 0.00 | 0.02 | 0.01 | 95 | 1017.6 |
| 20260905151533 | 72 | 74 | 2.0 | 9.0 | 0.00 | 0.02 | 0.01 | 96 | 1017.6 |
| 20260905150523 | 72 | 84 | 3.0 | 9.0 | 0.00 | 0.02 | 0.01 | 96 | 1017.4 |
| 20260905150037 | 72 | 26 | 3.0 | 9.0 | 0.00 | 0.02 | 0.01 | 95 | 1017.4 |
| 20260905145557 | 72 | 70 | 4.0 | 9.0 | 0.00 | 0.02 | 0.01 | 95 | 1017.4 |
| 20260905145035 | 72 | 46 | 3.0 | 10.0 | 0.00 | 0.02 | 0.01 | 96 | 1017.2 |
| 20260905144522 | 72 | 61 | 5.0 | 10.0 | 0.00 | 0.02 | 0.01 | 96 | 1017.1 |
| 20260905144037 | 72 | 42 | 3.0 | 6.0 | 0.00 | 0.02 | 0.01 | 96 | 1017.0 |
| 20260905143533 | 71 | 17 | 2.0 | 9.0 | 0.00 | 0.02 | 0.01 | 96 | 1017.0 |
| 20260905143020 | 71 | 90 | 2.0 | 10.0 | 0.00 | 0.02 | 0.01 | 96 | 1016.9 |
| 20260905142533 | 71 | 39 | 3.0 | 10.0 | 0.00 | 0.02 | 0.01 | 96 | 1016.9 |
| 20260905142019 | 71 | 20 | 6.0 | 10.0 | 0.00 | 0.02 | 0.01 | 96 | 1016.6 |
| 20260905141537 | 71 | 68 | 4.0 | 10.0 | 0.00 | 0.02 | 0.01 | 96 | 1016.7 |
| 20260905141056 | 71 | 53 | 4.0 | 10.0 | 0.00 | 0.02 | 0.01 | 96 | 1016.7 |
| 20260905140537 | 71 | 64 | 4.0 | 7.0 | 0.00 | 0.02 | 0.01 | 96 | 1016.7 |
| 20260905140054 | 71 | 39 | 4.0 | 7.0 | 0.00 | 0.02 | 0.01 | 96 | 1016.7 |
| 20260905135538 | 71 | 60 | 4.0 | 10.0 | 0.00 | 0.02 | 0.01 | 96 | 1016.5 |
| 20260905135034 | 71 | 26 | 3.0 | 10.0 | 0.00 | 0.02 | 0.01 | 96 | 1016.6 |
| 20260905134523 | 71 | 55 | 4.0 | 6.0 | 0.00 | 0.02 | 0.01 | 96 | 1016.4 |
| 20260905134036 | 71 | 33 | 3.0 | 12.0 | 0.00 | 0.02 | 0.01 | 96 | 1016.4 |
| 20260905133536 | 71 | 94 | 5.0 | 12.0 | 0.00 | 0.02 | 0.01 | 96 | 1016.3 |
| 20260905133018 | 71 | 72 | 2.0 | 10.0 | 0.00 | 0.02 | 0.01 | 96 | 1016.4 |
| 20260905132533 | 71 | 48 | 5.0 | 10.0 | 0.00 | 0.02 | 0.01 | 96 | 1016.4 |
| 20260905132029 | 71 | 71 | 5.0 | 8.0 | 0.00 | 0.02 | 0.01 | 96 | 1016.3 |
| 20260905131520 | 71 | 34 | 4.0 | 8.0 | 0.00 | 0.02 | 0.01 | 96 | 1016.4 |
| 20260905131017 | 71 | 21 | 4.0 | 8.0 | 0.00 | 0.02 | 0.01 | 96 | 1016.3 |
| 20260905130519 | 71 | 50 | 3.0 | 7.0 | 0.00 | 0.02 | 0.01 | 96 | 1016.2 |
| 20260905130033 | 71 | 40 | 3.0 | 8.0 | 0.00 | 0.02 | 0.01 | 96 | 1016.2 |
| 20260905125528 | 70 | 14 | 2.0 | 8.0 | 0.00 | 0.02 | 0.01 | 96 | 1016.2 |
| 20260905125043 | 70 | 49 | 2.0 | 9.0 | 0.00 | 0.02 | 0.01 | 96 | 1016.1 |
| 20260905124531 | 71 | 40 | 4.0 | 10.0 | 0.00 | 0.02 | 0.01 | 96 | 1016.2 |
| 20260905124020 | 71 | 42 | 3.0 | 10.0 | 0.00 | 0.02 | 0.01 | 96 | 1016.2 |
| 20260905123533 | 71 | 44 | 5.0 | 9.0 | 0.00 | 0.02 | 0.01 | 96 | 1016.2 |
| 20260905123034 | 71 | 48 | 4.0 | 10.0 | 0.00 | 0.02 | 0.01 | 96 | 1016.3 |
| 20260905122527 | 71 | 38 | 4.0 | 10.0 | 0.00 | 0.02 | 0.01 | 96 | 1016.4 |
| 20260905122021 | 71 | 360 | 3.0 | 6.0 | 0.00 | 0.02 | 0.01 | 96 | 1016.4 |
| 20260905121519 | 71 | 24 | 3.0 | 6.0 | 0.00 | 0.02 | 0.01 | 96 | 1016.1 |
| 20260905121031 | 71 | 57 | 3.0 | 8.0 | 0.00 | 0.02 | 0.01 | 96 | 1015.9 |
| 20260905120518 | 71 | 30 | 4.0 | 6.0 | 0.00 | 0.02 | 0.01 | 96 | 1015.8 |
| 20260905120037 | 71 | 24 | 4.0 | 8.0 | 0.00 | 0.02 | 0.01 | 96 | 1015.6 |
| 20260905115017 | 71 | 53 | 4.0 | 6.0 | 0.00 | 0.02 | 0.01 | 96 | 1015.5 |
| 20260905114519 | 71 | 43 | 4.0 | 8.0 | 0.00 | 0.02 | 0.01 | 96 | 1015.4 |
| 20260905114031 | 71 | 27 | 4.0 | 8.0 | 0.00 | 0.02 | 0.01 | 96 | 1015.3 |